THA116 VTBS-VTCC

Flight info

Callsign THA116
Flight time 0h 56m
Altitude 28000
Route OLVUK1J/19 OLVUK Y26 MARNI MARNI2A
Aircraft B77W/H-SDE1E2E3FGHIJ2J3J4J5M1RWXY/LB1D1

Departure

Time 2026-04-26 10:18
Airport Suvarnabhumi Airport (VTBS)

Arrival

Time 2026-04-26 11:14
Airport Chiang Mai International Airport (VTCC)
Time Latitude Longitude Altitude Speed Heading
2026-04-26 09:49 13.68923 100.75631 15 ft 0 kts 14°
2026-04-26 10:07 13.68914 100.75629 14 ft 2 kts 14°
2026-04-26 10:07 13.68900 100.75625 14 ft 2 kts 14°
2026-04-26 10:07 13.68885 100.75621 14 ft 2 kts 14°
2026-04-26 10:08 13.68870 100.75616 14 ft 2 kts 32°
2026-04-26 10:08 13.68860 100.75606 14 ft 2 kts 60°
2026-04-26 10:08 13.68854 100.75591 15 ft 2 kts 84°
2026-04-26 10:08 13.68855 100.75576 14 ft 2 kts 106°
2026-04-26 10:09 13.68859 100.75562 14 ft 2 kts 107°
2026-04-26 10:09 13.68861 100.75556 15 ft 0 kts 106°
2026-04-26 10:09 13.68856 100.75578 14 ft 3 kts 104°
2026-04-26 10:09 13.68849 100.75606 14 ft 3 kts 104°
2026-04-26 10:10 13.68846 100.75617 14 ft 0 kts 104°
2026-04-26 10:12 13.68845 100.75620 14 ft 1 kts 104°
2026-04-26 10:13 13.68842 100.75635 14 ft 3 kts 104°
2026-04-26 10:13 13.68834 100.75665 14 ft 5 kts 104°
2026-04-26 10:13 13.68823 100.75712 14 ft 7 kts 103°
2026-04-26 10:13 13.68809 100.75772 14 ft 10 kts 103°
2026-04-26 10:14 13.68829 100.75829 14 ft 8 kts 28°
2026-04-26 10:14 13.68889 100.75849 14 ft 9 kts 15°
2026-04-26 10:14 13.68962 100.75868 14 ft 11 kts 14°
2026-04-26 10:14 13.69047 100.75890 14 ft 12 kts 14°
2026-04-26 10:15 13.69086 100.75918 14 ft 6 kts 76°
2026-04-26 10:15 13.69085 100.75954 14 ft 0 kts 103°
2026-04-26 10:15 13.69083 100.75961 14 ft 2 kts 102°
2026-04-26 10:15 13.69078 100.75987 14 ft 4 kts 103°
2026-04-26 10:16 13.69068 100.76030 14 ft 7 kts 103°
2026-04-26 10:16 13.69049 100.76068 14 ft 4 kts 167°
2026-04-26 10:16 13.69020 100.76063 14 ft 0 kts 194°
2026-04-26 10:17 13.69015 100.76061 14 ft 4 kts 194°
2026-04-26 10:17 13.68852 100.76020 15 ft 55 kts 194°
2026-04-26 10:18 13.68244 100.75858 15 ft 122 kts 195°
2026-04-26 10:18 13.67206 100.75584 21 ft 179 kts 195°
2026-04-26 10:18 13.65917 100.75241 428 ft 196 kts 194°
2026-04-26 10:18 13.64580 100.74943 1282 ft 196 kts 183°
2026-04-26 10:19 13.63199 100.74997 1812 ft 205 kts 175°
2026-04-26 10:19 13.61698 100.75133 2184 ft 223 kts 175°
2026-04-26 10:19 13.60078 100.75296 2575 ft 241 kts 171°
2026-04-26 10:19 13.58393 100.75777 3040 ft 258 kts 162°
2026-04-26 10:20 13.56666 100.76341 3751 ft 264 kts 163°
2026-04-26 10:20 13.54896 100.76874 4492 ft 269 kts 163°
2026-04-26 10:20 13.53069 100.77401 5287 ft 272 kts 164°
2026-04-26 10:20 13.51221 100.77930 6014 ft 277 kts 163°
2026-04-26 10:21 13.49350 100.78451 6755 ft 280 kts 168°
2026-04-26 10:21 13.47397 100.78469 7423 ft 284 kts 189°
2026-04-26 10:21 13.45485 100.77969 8142 ft 286 kts 205°
2026-04-26 10:21 13.43858 100.76769 8740 ft 290 kts 231°
2026-04-26 10:22 13.42904 100.74965 9378 ft 292 kts 256°
2026-04-26 10:22 13.42790 100.72886 9861 ft 295 kts 280°
2026-04-26 10:22 13.43314 100.70870 9972 ft 295 kts 287°
2026-04-26 10:22 13.43910 100.68857 9977 ft 293 kts 285°
2026-04-26 10:23 13.44464 100.66823 9989 ft 301 kts 284°
2026-04-26 10:23 13.45017 100.64664 9991 ft 332 kts 284°
2026-04-26 10:23 13.45882 100.62334 9981 ft 359 kts 298°
2026-04-26 10:23 13.47421 100.60274 10423 ft 371 kts 316°
2026-04-26 10:24 13.49502 100.58727 11237 ft 372 kts 332°
2026-04-26 10:24 13.51936 100.57792 12021 ft 375 kts 345°
2026-04-26 10:24 13.54527 100.57138 12695 ft 382 kts 347°
2026-04-26 10:24 13.57130 100.56505 13450 ft 386 kts 347°
2026-04-26 10:25 13.59770 100.55862 14333 ft 387 kts 347°
2026-04-26 10:25 13.62386 100.55226 15117 ft 390 kts 347°
2026-04-26 10:25 13.65081 100.54571 15895 ft 394 kts 347°
2026-04-26 10:25 13.67771 100.53916 16650 ft 397 kts 347°
2026-04-26 10:26 13.70491 100.53254 17394 ft 400 kts 347°
2026-04-26 10:26 13.73226 100.52588 18120 ft 404 kts 347°
2026-04-26 10:26 13.75960 100.51922 18797 ft 407 kts 347°
2026-04-26 10:26 13.78725 100.51249 19453 ft 412 kts 347°
2026-04-26 10:27 13.81550 100.50561 20120 ft 415 kts 347°
2026-04-26 10:27 13.84408 100.49863 20758 ft 419 kts 347°
2026-04-26 10:27 13.87242 100.49173 21405 ft 422 kts 347°
2026-04-26 10:27 13.90143 100.48466 22045 ft 425 kts 347°
2026-04-26 10:28 13.93020 100.47764 22691 ft 428 kts 347°
2026-04-26 10:28 13.95921 100.47018 23300 ft 431 kts 343°
2026-04-26 10:28 13.98807 100.46100 23834 ft 436 kts 342°
2026-04-26 10:28 14.01712 100.45156 24422 ft 439 kts 342°
2026-04-26 10:29 14.04677 100.44199 24997 ft 442 kts 342°
2026-04-26 10:29 14.07628 100.43250 25589 ft 445 kts 342°
2026-04-26 10:29 14.10556 100.42312 26204 ft 447 kts 342°
2026-04-26 10:29 14.13551 100.41355 26803 ft 449 kts 342°
2026-04-26 10:30 14.16558 100.40396 27379 ft 452 kts 342°
2026-04-26 10:30 14.19583 100.39432 27911 ft 455 kts 342°
2026-04-26 10:30 14.22594 100.38474 28439 ft 458 kts 342°
2026-04-26 10:30 14.25681 100.37491 28968 ft 462 kts 342°
2026-04-26 10:31 14.28777 100.36507 29560 ft 463 kts 341°
2026-04-26 10:31 14.31850 100.35529 29774 ft 464 kts 342°
2026-04-26 10:31 14.37991 100.33576 29786 ft 457 kts 341°
2026-04-26 10:32 14.44063 100.31644 29790 ft 459 kts 341°
2026-04-26 10:32 14.49965 100.29105 29783 ft 457 kts 333°
2026-04-26 10:33 14.55710 100.26207 29783 ft 457 kts 333°
2026-04-26 10:33 14.61417 100.23326 29779 ft 456 kts 333°
2026-04-26 10:34 14.67244 100.20636 29778 ft 458 kts 340°
2026-04-26 10:34 14.73312 100.18606 29769 ft 456 kts 340°
2026-04-26 10:35 14.79393 100.16588 29774 ft 459 kts 340°
2026-04-26 10:35 14.85490 100.14562 29782 ft 455 kts 340°
2026-04-26 10:36 14.91532 100.12552 29780 ft 457 kts 340°
2026-04-26 10:36 14.97593 100.10533 29777 ft 456 kts 340°
2026-04-26 10:37 15.03678 100.08505 29786 ft 458 kts 340°
2026-04-26 10:37 15.09762 100.06479 29784 ft 459 kts 340°
2026-04-26 10:38 15.15877 100.04440 29780 ft 457 kts 340°
2026-04-26 10:38 15.21960 100.02412 29774 ft 458 kts 340°
2026-04-26 10:39 15.28030 100.00385 29775 ft 457 kts 340°
2026-04-26 10:39 15.34095 99.98360 29778 ft 457 kts 340°
2026-04-26 10:40 15.40176 99.96327 29773 ft 458 kts 340°
2026-04-26 10:40 15.46263 99.94292 29775 ft 457 kts 340°
2026-04-26 10:41 15.52361 99.92252 29790 ft 458 kts 340°
2026-04-26 10:41 15.58423 99.90222 29780 ft 457 kts 340°
2026-04-26 10:42 15.64516 99.88180 29787 ft 458 kts 340°
2026-04-26 10:42 15.70565 99.86153 29788 ft 457 kts 340°
2026-04-26 10:43 15.76661 99.84109 29787 ft 457 kts 340°
2026-04-26 10:43 15.82731 99.82071 29795 ft 457 kts 340°
2026-04-26 10:44 15.88766 99.80044 29803 ft 456 kts 340°
2026-04-26 10:44 15.94860 99.77996 29797 ft 456 kts 339°
2026-04-26 10:45 16.00912 99.75960 29798 ft 458 kts 340°
2026-04-26 10:45 16.06982 99.73918 29803 ft 457 kts 339°
2026-04-26 10:46 16.13068 99.71869 29816 ft 458 kts 339°
2026-04-26 10:46 16.19137 99.69823 29804 ft 459 kts 339°
2026-04-26 10:47 16.25229 99.67770 29798 ft 458 kts 339°
2026-04-26 10:47 16.31292 99.65724 29805 ft 459 kts 339°
2026-04-26 10:48 16.37371 99.63673 29812 ft 459 kts 339°
2026-04-26 10:48 16.43451 99.61621 29800 ft 459 kts 339°
2026-04-26 10:49 16.49570 99.59555 29800 ft 458 kts 339°
2026-04-26 10:49 16.55644 99.57502 29818 ft 460 kts 339°
2026-04-26 10:50 16.60721 99.55786 29818 ft 459 kts 339°
2026-04-26 10:50 16.67819 99.53384 29813 ft 458 kts 339°
2026-04-26 10:51 16.76953 99.50291 29816 ft 459 kts 339°
2026-04-26 10:52 16.83059 99.48222 29808 ft 461 kts 339°
2026-04-26 10:52 16.89124 99.46165 29799 ft 460 kts 339°
2026-04-26 10:53 16.95251 99.44087 29790 ft 461 kts 339°
2026-04-26 10:53 17.01368 99.42009 29802 ft 461 kts 339°
2026-04-26 10:54 17.10499 99.38906 29802 ft 458 kts 339°
2026-04-26 10:54 17.16559 99.36845 29813 ft 458 kts 339°
2026-04-26 10:55 17.22568 99.34801 29225 ft 450 kts 339°
2026-04-26 10:55 17.25534 99.33791 28739 ft 445 kts 339°
2026-04-26 10:55 17.28482 99.32787 28283 ft 439 kts 338°
2026-04-26 10:56 17.31381 99.31799 27808 ft 435 kts 339°
2026-04-26 10:56 17.34253 99.30820 27314 ft 431 kts 339°
2026-04-26 10:56 17.37115 99.29844 26818 ft 427 kts 339°
2026-04-26 10:56 17.39968 99.28871 26329 ft 422 kts 339°
2026-04-26 10:57 17.42760 99.27918 25845 ft 418 kts 338°
2026-04-26 10:57 17.45496 99.26984 25372 ft 414 kts 339°
2026-04-26 10:57 17.48297 99.26178 24894 ft 412 kts 343°
2026-04-26 10:57 17.51096 99.25506 24401 ft 409 kts 344°
2026-04-26 10:58 17.53872 99.24837 23916 ft 405 kts 343°
2026-04-26 10:58 17.56625 99.24165 23424 ft 402 kts 343°
2026-04-26 10:58 17.59332 99.23501 22940 ft 398 kts 343°
2026-04-26 10:58 17.62045 99.22829 22455 ft 395 kts 343°
2026-04-26 10:59 17.64696 99.22171 21984 ft 392 kts 343°
2026-04-26 10:59 17.67343 99.21512 21514 ft 389 kts 343°
2026-04-26 10:59 17.70007 99.20846 21030 ft 386 kts 343°
2026-04-26 10:59 17.72627 99.20190 20556 ft 395 kts 343°
2026-04-26 11:00 17.75343 99.19508 20051 ft 400 kts 343°
2026-04-26 11:00 17.78065 99.18825 19548 ft 400 kts 343°
2026-04-26 11:00 17.80754 99.18151 19058 ft 397 kts 342°
2026-04-26 11:00 17.83479 99.17467 18553 ft 395 kts 342°
2026-04-26 11:01 17.86125 99.16736 18087 ft 389 kts 338°
2026-04-26 11:01 17.88631 99.15849 17726 ft 374 kts 337°
2026-04-26 11:01 17.91064 99.14977 17427 ft 357 kts 337°
2026-04-26 11:01 17.93388 99.14142 17109 ft 344 kts 336°
2026-04-26 11:02 17.95642 99.13332 16674 ft 335 kts 337°
2026-04-26 11:02 17.97848 99.12537 16135 ft 331 kts 337°
2026-04-26 11:02 18.00003 99.11759 15497 ft 331 kts 337°
2026-04-26 11:02 18.02209 99.10963 14812 ft 332 kts 338°
2026-04-26 11:03 18.04387 99.10176 14201 ft 330 kts 338°
2026-04-26 11:03 18.06566 99.09390 13615 ft 328 kts 338°
2026-04-26 11:03 18.08717 99.08612 13021 ft 326 kts 338°
2026-04-26 11:03 18.10871 99.07834 12449 ft 323 kts 338°
2026-04-26 11:04 18.12962 99.07079 11937 ft 318 kts 338°
2026-04-26 11:04 18.15050 99.06324 11411 ft 314 kts 338°
2026-04-26 11:04 18.17111 99.05579 10977 ft 310 kts 338°
2026-04-26 11:04 18.19127 99.04851 10959 ft 295 kts 338°
2026-04-26 11:05 18.21040 99.04162 10948 ft 280 kts 337°
2026-04-26 11:05 18.22856 99.03506 10889 ft 268 kts 338°
2026-04-26 11:05 18.24561 99.02891 10746 ft 257 kts 337°
2026-04-26 11:05 18.26263 99.02274 10300 ft 258 kts 337°
2026-04-26 11:06 18.27988 99.01648 9813 ft 261 kts 337°
2026-04-26 11:06 18.29696 99.01028 9431 ft 259 kts 337°
2026-04-26 11:06 18.31399 99.00410 9045 ft 257 kts 338°
2026-04-26 11:06 18.33066 98.99806 8920 ft 246 kts 337°
2026-04-26 11:07 18.34657 98.99230 8770 ft 238 kts 337°
2026-04-26 11:07 18.36217 98.98663 8455 ft 237 kts 337°
2026-04-26 11:07 18.37796 98.98089 8109 ft 238 kts 338°
2026-04-26 11:07 18.39392 98.97508 7790 ft 237 kts 337°
2026-04-26 11:08 18.40936 98.96948 7481 ft 236 kts 337°
2026-04-26 11:08 18.42506 98.96388 7126 ft 237 kts 342°
2026-04-26 11:08 18.44168 98.96181 6818 ft 238 kts 355°
2026-04-26 11:08 18.45828 98.96182 6519 ft 236 kts 357°
2026-04-26 11:09 18.47470 98.96199 6220 ft 234 kts 357°
2026-04-26 11:09 18.49112 98.96214 5920 ft 231 kts 357°
2026-04-26 11:09 18.50744 98.96226 5620 ft 229 kts 357°
2026-04-26 11:09 18.52331 98.96233 5334 ft 227 kts 358°
2026-04-26 11:10 18.53896 98.96238 5055 ft 225 kts 358°
2026-04-26 11:10 18.55481 98.96240 4767 ft 223 kts 358°
2026-04-26 11:10 18.57046 98.96242 4484 ft 221 kts 359°
2026-04-26 11:10 18.58608 98.96246 4199 ft 219 kts 359°
2026-04-26 11:11 18.60129 98.96248 3927 ft 217 kts 359°
2026-04-26 11:11 18.61647 98.96252 3639 ft 215 kts
2026-04-26 11:11 18.63106 98.96255 3362 ft 203 kts
2026-04-26 11:11 18.64504 98.96259 3110 ft 196 kts
2026-04-26 11:12 18.65861 98.96263 2855 ft 193 kts
2026-04-26 11:12 18.67205 98.96267 2595 ft 186 kts
2026-04-26 11:12 18.68486 98.96268 2366 ft 174 kts
2026-04-26 11:12 18.69680 98.96272 2133 ft 169 kts
2026-04-26 11:13 18.70853 98.96275 1904 ft 165 kts
2026-04-26 11:13 18.72011 98.96278 1680 ft 163 kts
2026-04-26 11:13 18.73148 98.96279 1459 ft 162 kts
2026-04-26 11:13 18.74274 98.96280 1233 ft 159 kts
2026-04-26 11:14 18.75388 98.96285 1055 ft 158 kts
2026-04-26 11:14 18.76399 98.96292 1027 ft 129 kts 359°
2026-04-26 11:14 18.77153 98.96293 1042 ft 83 kts
2026-04-26 11:14 18.77502 98.96314 1045 ft 35 kts 24°
2026-04-26 11:15 18.77665 98.96420 1046 ft 12 kts 33°
2026-04-26 11:15 18.77697 98.96487 1044 ft 10 kts 110°
2026-04-26 11:15 18.77633 98.96517 1043 ft 10 kts 176°
2026-04-26 11:15 18.77556 98.96518 1041 ft 11 kts 180°
2026-04-26 11:16 18.77476 98.96518 1040 ft 11 kts 180°
2026-04-26 11:16 18.77387 98.96518 1038 ft 13 kts 180°
2026-04-26 11:16 18.77287 98.96518 1037 ft 14 kts 180°
2026-04-26 11:16 18.77188 98.96517 1037 ft 14 kts 180°
2026-04-26 11:17 18.77107 98.96571 1035 ft 15 kts 133°
2026-04-26 11:17 18.77014 98.96635 1032 ft 17 kts 162°
2026-04-26 11:17 18.76895 98.96646 1031 ft 16 kts 179°
2026-04-26 11:17 18.76787 98.96646 1030 ft 14 kts 180°
2026-04-26 11:18 18.76726 98.96651 1029 ft 4 kts 143°
2026-04-26 11:18 18.76717 98.96681 1028 ft 4 kts 91°
2026-04-26 11:18 18.76716 98.96711 1028 ft 3 kts 90°
2026-04-26 11:18 18.76716 98.96721 1028 ft 0 kts 90°